{"data":{"norad_id":51894,"epoch":"2026-09-19T11:17:44.390688Z","epoch_age_seconds":145141,"freshness":"FRESH","line1":"1 51894U 22022AU  26262.47065267 -.00001308  00000+0 -27593-4 0  9993","line2":"2 51894  53.1597 192.8812 0001412  87.9005 272.2159 15.34382829252784","mean_motion":15.34382829,"eccentricity":0.0001412,"inclination_deg":53.1597,"raan_deg":192.8812,"arg_perigee_deg":87.9005,"mean_anomaly_deg":272.2159,"bstar":-2.7593e-5,"rev_number":25278,"period_min":93.848808314577,"perigee_km":461.78834266543,"apogee_km":463.72021036192,"semimajor_km":6840.8912765137,"source":"CELESTRAK","updated_at":"2026-09-20T09:00:39.973791Z"}}